Home   Weather   Santarém   Past weeks

Flag for Brazil Past Weather in Santarém, Pará, Brazil — Yesterday and Last 2 Weeks

Now
75 °F

Passing clouds.


Feels Like: 73 °F
Forecast: 77 / 90 °F
Wind: No wind

Location: Santarem-Aeroporto

Current Time: Apr 27, 2017 at 4:34:09 am

Latest Report: Apr 27, 2017 at 4:00 am


Visibility: N/A

Pressure: 29.80 "Hg

Humidity: 100%

Dew Point: 75 °F

Location of SantarémLocation

Past Weather in Santarém — Graph

°F

Santarém Temperature Yesterday

Maximum temperature yesterday: 88 °F (at 2:00 pm)
Minimum temperature yesterday: 75 °F (at 12:00 am)
Average temperature yesterday: 81 °F

High & Low Weather Summary for the Past Weeks

 TemperatureHumidityPressure
High88 °F (Apr 12, 1:00 pm)100% (Apr 12, 5:00 am)30.01 "Hg (Apr 12, 5:00 am)
Low73 °F (Apr 16, 3:00 am)62% (Apr 21, 3:00 pm)29.71 "Hg (Apr 14, 6:00 pm)
Average81 °F87%29.85 "Hg
* Reported Apr 12 3:00 am — Apr 27 3:00 am, Santarém, Weather by CustomWeather, © 2017

Note: Actual official high and low records may vary slightly from our data, if they occured in-between our weather recording intervals... More about our weather records

Advertising

Santarém Weather History for the Previous 24 Hours

Scroll right to see more
 ConditionsComfort  
Time TempWeatherWind HumidityBarometerVisibility
3:00 am
Thu, Apr 27
77 °FPassing clouds.3 mph94%29.83 "HgN/A
2:00 am77 °FPassing clouds.5 mph94%29.83 "HgN/A
1:00 am77 °FPassing clouds.3 mph100%29.86 "HgN/A
12:00 am79 °FPassing clouds.3 mph94%29.86 "HgN/A
11:00 pm
Wed, Apr 26
79 °FPassing clouds.3 mph94%29.86 "HgN/A
10:00 pm81 °FPassing clouds.5 mph89%29.83 "HgN/A
9:00 pm81 °FPassing clouds.3 mph89%29.80 "HgN/A
8:00 pm82 °FPassing clouds.5 mph84%29.80 "HgN/A
7:00 pm82 °FPassing clouds.3 mph79%29.77 "HgN/A
6:00 pm86 °FPassing clouds.7 mph70%29.77 "HgN/A
5:00 pm88 °FScattered clouds.9 mph66%29.77 "HgN/A
4:00 pm88 °FPassing clouds.9 mph66%29.77 "HgN/A
3:00 pm88 °FPassing clouds.7 mph70%29.80 "HgN/A
2:00 pm88 °FPassing clouds.12 mph70%29.83 "HgN/A
1:00 pm86 °FPassing clouds.14 mph75%29.86 "HgN/A
12:00 pm86 °FScattered clouds.12 mph75%29.89 "HgN/A
11:00 am86 °FScattered clouds.9 mph75%29.92 "HgN/A
10:00 am82 °FScattered clouds.9 mph79%29.92 "HgN/A
9:00 am82 °FScattered clouds.9 mph79%29.89 "HgN/A
8:00 am81 °FScattered clouds.9 mph89%29.86 "HgN/A
7:00 am79 °FPassing clouds.9 mph94%29.86 "HgN/A
6:00 am77 °FPassing clouds.6 mph100%29.83 "HgN/A
5:00 am77 °FPassing clouds.5 mph94%29.80 "HgN/A
4:00 am75 °FPassing clouds.3 mph100%29.80 "HgN/A
Weather by CustomWeather, © 2017

See weather overviewHow to use our weather pages